Regional Weather Roundup
Issued by NWS Upton, NY

Current Version | Previous Version | Text Only | Print | Product List | Glossary On
Versions: 1 2 3 4 5 6 7 8 9 10 11 12 13 14 15 16 17 18 19 20 21 22 23 24 25 26 27
000
ASUS41 KOKX 271008
RWROKX

REGIONAL WEATHER ROUNDUP
NATIONAL WEATHER SERVICE NEW YORK NY
600 AM EDT MON MAR 27 2017

NOTE: "FAIR" INDICATES FEW OR NO CLOUDS BELOW 12,000 FEET WITH NO
SIGNIFICANT WEATHER AND/OR OBSTRUCTIONS TO VISIBILITY.

NYZ071-072-176-178-NJZ106-104-271100-
NEW YORK CITY METRO AREA

CITY           SKY/WX    TMP DP  RH WIND       PRES   REMARKS
Central Park   CLOUDY    38  38 100 E6        30.18F FOG     WCI  33
Wall St Helipt CLOUDY    39  38  96 NE9       30.18S FOG     WCI  33
LaGuardia APRT DRIZZLE   40  37  89 NE10      30.16F FOG     WCI  33
Kennedy INTL   DRZL/FOG  42  41  96 E6        30.17F VSB 1/2
Breezy Point     N/A     39 N/A N/A E12         N/A  WCI  32
Newark/Liberty DRZL/FOG  39  38  96 N6        30.16F VSB 1/2 WCI  35
Teterboro      LGT RAIN  39  38  96 NE3       30.16F
$$

NYZ177-179-078>081-271100-
LONG ISLAND NEW YORK

CITY           SKY/WX    TMP DP  RH WIND       PRES   REMARKS
Jones Beach      N/A     39 N/A N/A E12         N/A  WCI  32
Matinecock PT  NOT AVBL
Farmingdale    FOG       41  41 100 NE5       30.17S VSB 3/4
MacArthur/ISP  FOG       41  41 100 E8        30.16F VSB 1/4
Shirley        FOG       40  40 100 E6        30.17F VSB 3/4
Westhampton    CLOUDY    40  38  93 E9        30.19F FOG     WCI  34
East Hampton   CLOUDY    39  38  95 E9        30.18F FOG     WCI  33
Montauk          N/A     40  39  97 NE9       30.20F WCI  34
$$

NYZ052-065-067-271100-
HUDSON VALLEY

CITY           SKY/WX    TMP DP  RH WIND       PRES   REMARKS
White Plains   DRZL/FOG  37  35  92 E10       30.14F VSB 3/4 WCI  30
Newburgh       DRIZZLE   36  36 100 SE9       30.15F FOG     WCI  29
Montgomery     LGT RAIN  35  34  96 N5        30.13F WCI  31
Poughkeepsie   MIX PCPN  34  34 100 CALM      30.15F
Albany         LGT RAIN  36  32  85 S8G17     30.12F WCI  30
$$

NJZ001-105-106-008-010-013-015-019>022-104-271100-
NEW JERSEY

CITY           SKY/WX    TMP DP  RH WIND       PRES   REMARKS
Newark/Liberty DRZL/FOG  39  38  96 N6        30.16F VSB 1/2 WCI  35
Teterboro      LGT RAIN  39  38  96 NE3       30.16F
Caldwell       CLOUDY    38  37  97 E7        30.16F FOG     WCI  33
Somerville     NOT AVBL
Linden         CLOUDY    40  39  97 CALM      30.16F FOG
Sussex         LGT RAIN  36  35  96 CALM      30.13F
Andover          N/A     37  35  92 CALM      30.11F
Trenton        FOG       40  40 100 E8        30.12F VSB 3/4 WCI  34
Millville      CLOUDY    46  46 100 E5        30.11F FOG
Atlantic City  FOG       45  44  97 E6        30.13F VSB 1/4
Wrightstown    CLOUDY    42  41  97 NE5       30.11S FOG
Toms River     FOG       42  42 100 CALM      30.14F VSB 1/2
Belmar         LGT RAIN  41  41 100 E7        30.15F VSB 1/2
$$

PAZ047>061-062-071-271100-
EASTERN PENNSYLVANIA

CITY           SKY/WX    TMP DP  RH WIND       PRES   REMARKS
Philadelphia   FOG       42  41  96 E7        30.12F VSB 3/4
Allentown      LGT RAIN  41  38  89 E5        30.11F FOG
Scranton       CLOUDY    40  39  97 CALM      30.05F
$$

CTZ002-004>006-009-010-012-RIZ004-006-007-MAZ004-011-015-271100-
SOUTHERN NEW ENGLAND
 IN CT

CITY           SKY/WX    TMP DP  RH WIND       PRES   REMARKS
Bradley INTL   LGT RAIN  33  33 100 N5        30.21F FOG     WCI  29
Hartford       CLOUDY    34  34 100 N5        30.22F FOG     WCI  30
Danbury        LGT RAIN  35  35 100 NE7       30.17F FOG     WCI  29
Wtrbury/Oxford CLOUDY    34  30  86 E5        30.17F VSB 1/2 WCI  30
Bridgeport     CLOUDY    39  36  89 E15       30.19F FOG     WCI  31
Meriden        CLOUDY    36  33  89 N5        30.20F FOG     WCI  32
New Haven      FOG       37  36  96 NE5       30.19F VSB 1   WCI  33
Chester        NOT AVBL
Groton         CLOUDY    39  37  92 E13       30.19F FOG     WCI  31
Wilimantic     CLOUDY    37  35  92 NE3       30.22F FOG

 IN RI

CITY           SKY/WX    TMP DP  RH WIND       PRES   REMARKS
Providence     DRIZZLE   36  34  92 E6        30.24F FOG     WCI  31
Block Island   CLOUDY    39  38  96 E12       30.22F WCI  32
Westerly       CLOUDY    39  38  96 E10       30.22F WCI  32
 IN MA

CITY           SKY/WX    TMP DP  RH WIND       PRES   REMARKS
Boston         DRIZZLE   36  36 100 E13       30.27F FOG     WCI  27
Worcester      FRZ RAIN  31  29  92 E8        30.20F VSB 1/4 WCI  23
Westfield      LGT RAIN  33  33 100 N5        30.21F FOG     WCI  29
Provincetown   CLOUDY    39  38  96 SE8       30.27F WCI  33
Nantucket      CLOUDY    41  37  86 E18       30.24F
$$

ANZ330-335-338-340-345-350-353-355-271100-
COASTAL MARINE OBSERVATIONS


STATION/POSITION TIME  SKY/WX   TEMP    WIND        PRES    VSBY  WAVE
                                AIR SEA DIR/SP/G                  HT/PER
                 (UTC)          (F)     (DEG/KT/KT) (MB)    (MI)  (FT/S)
NY HARB ENTRANCE 0850            41 42   80/ 14/ 17 1021.2          6/ 7
20 S FIRE ISLAND 0950            42 40  100/ 10/ 12 1020.2          6/ 7
GREAT SOUTH BAY  NOT AVBL
23 SSW MONTAUK P 0850            42 42              1022.7          5/ 6
15 E BARNEGAT LI 0930               43                N/A           6/ 8
HUDSON CANYON    0850            45 44   80/  6/  8 1021.6          6/ 8
KINGS POINT      0948            38 39              1021.1
EXECUTION ROCKS  NOT AVBL
CENTRAL LI SOUND 0915            38      80/ 16/ 19   N/A           3/ 5
EASTERN LI SOUND NOT AVBL
ROBBINS REEF     0948            38      30/  7/  8 1021.5
$$


>>>>>>>>>>>>>>>>>>>>>>>>>>>> KEY <<<<<<<<<<<<<<<<<<<<<<<<<<<
>                                                          <
>     SKY/WX - Sky Condition/Present Weather               <
>     TMP    - Temperature in Fahrenheit                   <
>     DP     - Dew Point in Fahrenheit                     <
>     RH     - Relative Humidity in Percent                <
>     WIND   - Direction (from) and Speed in MPH           <
>     PRES   - Mean Sea Level Pressure (inches of Hg)      <
>     WCI    - Wind Chill Index                            <
>     VSB    - VISIBILITY IN MILES                         <
>     HX     - HEAT INDEX                                  <
>     TC     - TEMPERATURE IN CELSIUS                      <
>     VRB    - VARIABLE WIND DIRECTION                     <
>                                                          <
>>>>>>>>>>>>>>>>>>>>>>>>>>>> KEY <<<<<<<<<<<<<<<<<<<<<<<<<<<




USA.gov is the U.S. government's official web portal to all federal, state and local government web resources and services.